Temperature
17 17 17 17 17 17 17 17 17 17 17 17 17 17 17 17 17 17 17 17 17 17 17 17 17 17 17 17 17 18 18 18 18 18 18 18 18 18 18 18 18 18 18
17 17 17 17 17 17 17 17 17 17 17 16 16 16 16 16 16 17 17 17 17 17 17 17 17 17 17 17 17 17 17 18 18 18 18 18 18 18 18 18 18 18 18
17 17 17 17 16 16 16 16 16 16 16 16 16 16 16 16 16 16 17 17 16 17 17 17 17 17 17 17 17 17 17 17 17 17 17 17 17 18 18 18 18 18 18
17 17 17 17 17 16 16 16 16 16 16 16 16 16 16 16 16 16 16 16 16 16 17 17 17 17 17 17 17 17 17 17 17 17 17 17 17 18 18 18 18 18 18
17 17 17 17 17 16 16 16 16 16 16 16 16 16 16 16 16 16 16 16 16 16 16 16 16 16 17 17 17 17 17 17 17 17 17 17 17 17 18 18 18 18 18
17 17 17 17 17 16 16 16 16 16 16 16 16 16 16 16 16 16 16 16 16 16 16 16 16 16 16 16 17 17 17 17 17 17 17 17 17 17 17 18 18 18 18
17 17 17 17 17 16 16 16 16 16 16 16 16 16 16 16 16 16 16 16 16 16 16 16 16 16 16 16 16 17 17 17 17 17 17 17 17 17 17 18 18 18 18
17 17 17 17 17 17 16 16 16 16 16 16 16 16 16 16 16 16 16 16 16 16 16 16 16 16 16 16 16 16 17 17 17 17 17 17 17 17 17 17 18 18 18
17 17 17 17 17 17 16 16 16 16 16 16 16 16 16 16 16 16 16 16 16 16 16 16 16 16 16 16 16 16 16 17 17 17 17 17 17 17 17 17 17 17 18
17 17 17 17 17 16 16 16 16 16 16 16 16 16 16 16 16 16 16 16 16 16 16 16 16 16 16 16 16 16 16 16 17 17 17 17 17 17 17 17 17 17 17
17 17 17 17 17 17 16 16 16 16 16 16 16 16 16 16 16 16 16 16 16 16 16 16 16 16 16 16 16 16 16 16 16 17 17 17 17 17 17 17 17 17 17
17 17 17 17 17 17 17 16 16 16 16 16 16 16 16 16 16 16 16 16 16 16 16 16 16 16 16 16 16 16 16 16 16 16 16 16 17 17 17 17 17 17 17
18 17 17 17 17 17 17 17 16 16 16 16 16 16 16 16 16 16 16 16 16 16 16 16 16 16 16 16 16 16 16 16 16 16 16 16 16 17 17 17 17 17 17
18 18 17 17 17 17 17 17 16 16 16 16 16 16 16 16 16 16 16 16 16 16 16 16 16 16 16 16 16 16 16 16 16 16 16 16 16 16 17 17 17 17 17
18 18 17 17 17 17 17 17 16 16 16 16 16 16 16 16 16 16 16 16 16 16 16 16 16 16 16 16 16 16 16 16 16 16 16 16 16 16 16 16 16 17 17
18 18 18 17 17 17 17 17 16 16 16 16 16 16 16 16 16 16 16 16 16 16 16 16 16 16 16 16 16 16 16 16 16 16 16 16 16 16 16 16 16 17 17
18 18 18 17 17 17 17 17 17 16 16 16 16 16 16 16 16 16 16 16 16 16 16 16 16 16 16 16 15 15 15 15 15 15 15 16 16 16 16 16 16 16 16
18 18 18 17 17 17 17 17 17 16 16 16 16 16 16 16 16 16 16 16 16 16 16 16 16 16 15 15 15 15 15 15 15 15 15 15 16 15 16 16 16 16 16
18 18 18 17 17 17 17 17 16 16 16 16 16 16 16 16 16 16 16 16 16 16 16 15 15 15 15 15 15 15 15 15 15 15 15 15 15 15 15 15 15 15 16
18 18 18 17 17 17 17 16 16 16 16 16 16 16 16 16 16 16 16 16 15 15 15 15 15 15 15 15 15 15 15 15 15 15 15 15 15 15 15 15 15 15 15
18 18 18 17 17 17 17 16 16 16 16 16 16 16 16 16 16 16 16 15 15 15 15 15 15 15 15 15 15 14 14 14 14 14 14 14 14 14 15 15 15 15 15
18 18 18 18 17 17 17 16 16 16 16 16 16 16 16 16 15 15 15 15 15 15 15 15 15 15 15 15 15 15 14 14 14 14 14 14 14 14 14 14 15 15 15
18 18 18 18 17 17 17 17 16 16 16 16 16 16 15 15 15 15 15 15 15 15 15 15 15 15 15 15 15 15 14 14 13 13 14 14 14 14 14 14 14 15 15
18 18 18 18 17 17 17 17 16 16 16 16 16 16 15 15 15 15 15 15 15 15 15 15 15 15 15 15 15 15 15 15 14 14 13 14 14 14 14 14 14 14 14
18 18 18 18 17 17 17 17 17 16 16 16 16 16 15 15 15 15 15 15 15 15 15 15 15 15 15 15 15 15 15 15 15 14 13 13 13 14 14 14 14 14 14
18 18 18 18 17 17 17 17 17 16 16 16 16 16 16 16 15 15 15 15 15 15 15 15 15 15 15 15 15 15 15 15 15 15 14 14 13 13 13 13 13 14 14
Wind_Speed
1 4 9 11 11 12 12 12 12 12 12 12 12 12 12 12 11 11 11 10 10 9 9 9 9 10 9 9 9 9 9 9 10 9 9 9 9 8 8 7 7 6 8
5 7 10 11 11 11 12 12 12 11 11 11 11 11 11 11 11 10 10 9 9 9 9 9 9 9 9 8 9 9 8 9 9 9 9 8 8 8 7 8 8 7 8
7 9 10 11 11 11 11 11 11 11 10 10 10 10 10 10 10 9 9 9 9 9 9 8 8 8 8 8 8 8 7 7 8 8 7 6 7 8 8 8 9 9 8
10 10 10 11 11 11 11 10 10 10 10 9 9 9 9 9 9 9 9 8 8 8 8 8 7 7 7 7 7 7 7 7 7 7 6 5 5 7 8 8 9 9 8
9 10 11 11 11 10 10 10 10 9 9 9 8 8 8 8 8 8 8 7 7 7 7 7 7 7 7 7 7 7 7 8 8 7 6 6 5 7 8 8 8 8 8
8 10 11 11 10 10 9 9 9 9 9 8 8 8 8 7 7 7 7 7 7 6 6 7 6 6 6 6 6 6 7 8 7 6 6 5 5 8 8 8 8 7 7
7 9 10 11 10 9 9 9 8 8 8 7 7 7 7 7 6 6 6 6 6 6 6 6 5 5 6 6 7 7 8 8 7 6 5 5 6 8 8 8 7 7 6
9 9 10 11 10 9 9 8 7 7 6 6 6 6 6 6 6 6 5 6 6 6 6 5 5 5 6 6 7 7 7 7 6 5 5 5 7 8 7 7 7 7 6
9 8 8 8 9 9 8 7 6 6 5 4 4 4 4 4 4 5 5 5 5 5 5 5 5 5 6 7 7 7 8 8 6 5 5 5 7 7 7 7 7 6 6
6 6 7 7 7 7 7 6 5 4 4 2 2 2 3 3 3 3 3 4 4 4 4 4 5 5 6 7 7 8 9 8 7 5 4 5 7 7 7 7 7 6 6
6 5 5 6 6 7 6 4 3 3 3 2 1 1 2 2 1 1 2 3 4 4 4 4 4 6 7 7 8 9 8 7 6 5 4 6 7 8 8 7 6 6 5
7 6 5 5 6 6 5 4 2 1 1 3 2 1 2 2 1 1 1 2 3 4 4 4 5 6 7 6 7 8 7 7 6 5 5 7 7 8 8 7 7 6 6
7 6 6 5 6 5 3 3 2 2 2 4 3 3 4 4 3 3 3 3 5 5 5 5 6 6 6 6 6 6 6 6 5 5 6 8 8 8 8 9 8 8 8
6 6 6 6 5 4 5 3 3 2 2 3 3 4 5 3 2 2 2 3 4 5 5 5 5 6 7 7 6 6 6 6 6 6 7 9 9 10 10 10 10 10 10
7 6 6 6 5 5 4 3 3 3 3 3 5 5 5 4 2 2 2 4 4 6 6 5 6 6 6 7 7 7 7 7 7 7 8 10 11 11 11 11 11 11 11
7 7 6 6 6 6 4 3 3 4 4 6 6 6 6 5 4 3 3 4 5 6 7 7 6 5 5 6 6 7 7 7 8 9 9 10 12 13 13 13 13 13 13
8 8 7 7 6 6 5 4 5 5 7 6 6 8 8 8 6 5 3 3 4 7 8 8 7 7 5 6 7 7 7 7 8 8 9 10 10 13 14 14 14 14 14
8 7 7 8 7 6 5 5 6 7 8 7 7 8 9 9 8 7 4 3 6 8 7 5 4 6 6 5 6 5 5 6 8 9 10 10 10 11 13 14 14 15 15
8 8 7 7 7 6 6 6 7 7 7 7 8 8 8 9 9 8 5 4 7 6 4 5 4 4 5 5 6 6 6 5 5 8 8 10 10 11 11 12 14 15 15
7 8 7 7 6 6 5 5 5 5 4 6 7 8 8 8 9 8 6 6 7 5 5 5 5 4 4 4 7 7 6 6 6 6 6 9 10 10 11 11 11 12 15
7 7 7 7 5 5 4 4 4 3 2 3 5 8 9 8 8 8 5 5 5 5 4 5 5 6 4 4 5 5 6 7 7 6 6 6 8 10 12 12 11 11 11
7 7 7 7 6 5 4 3 3 3 2 2 3 6 8 8 7 7 6 4 4 5 5 5 4 3 2 2 3 3 3 5 5 6 5 5 5 8 9 11 12 12 12
7 7 7 7 6 6 6 5 5 4 4 3 3 3 4 7 8 7 6 5 4 4 4 3 4 4 2 1 2 3 3 2 1 4 5 5 5 5 6 9 11 11 12
7 7 7 7 7 6 7 7 6 4 3 1 1 1 3 6 7 7 6 6 4 3 3 2 3 3 3 1 1 2 2 4 3 1 3 4 5 5 5 6 8 10 11
8 7 7 7 6 6 6 8 7 5 3 2 2 2 3 4 6 6 6 6 4 3 3 3 3 3 2 2 1 2 3 3 3 3 1 2 4 4 3 4 6 8 9
7 7 7 7 6 6 6 7 8 7 5 4 3 2 1 2 3 4 6 5 4 3 3 3 3 4 3 3 2 2 3 2 2 3 3 1 1 2 3 3 4 5 7
Wind_Direction
114 114 107 103 100 96 94 91 87 85 84 84 83 83 83 83 83 82 84 84 83 82 81 82 85 86 85 85 85 86 87 87 87 88 89 89 87 88 92 94 96 100 104
144 125 114 110 104 99 97 94 91 88 86 84 83 83 83 83 82 83 83 84 83 82 80 81 86 86 85 85 84 85 88 88 87 86 85 83 82 84 89 92 94 98 102
127 121 117 113 108 103 99 96 93 90 88 86 85 84 82 81 80 80 84 87 84 82 79 78 81 84 85 83 83 83 85 89 90 84 78 76 77 80 87 91 92 94 96
130 127 123 118 111 106 101 97 94 92 91 90 89 88 86 85 83 83 85 87 86 85 83 82 82 81 83 81 80 83 80 85 88 79 71 63 73 84 91 92 90 90 92
128 130 131 124 117 111 105 100 95 94 93 92 92 91 91 90 88 85 87 88 88 87 86 86 85 80 78 78 78 81 79 84 81 72 68 66 80 93 94 91 90 89 88
134 138 136 128 122 116 110 105 101 98 94 93 93 94 93 92 90 90 88 89 92 90 88 87 84 81 75 74 72 75 78 84 71 69 74 76 90 97 96 93 88 84 83
143 147 142 136 131 124 117 111 108 104 100 96 94 92 90 90 90 93 91 90 94 94 93 93 89 84 77 76 75 69 74 77 68 70 81 87 97 100 99 93 87 81 75
151 157 154 148 142 134 127 123 117 110 104 100 97 94 93 95 95 96 93 93 96 95 94 97 94 92 86 78 74 74 75 71 73 78 85 95 101 102 102 96 89 79 69
155 159 164 160 152 145 142 138 132 122 113 108 102 99 101 103 100 100 101 99 97 95 94 92 86 87 82 73 73 76 73 71 68 78 83 95 101 100 100 97 92 81 71
153 161 166 168 164 159 158 155 146 129 117 114 112 107 110 110 105 104 107 105 97 94 93 89 80 80 76 72 78 75 70 66 65 76 77 97 97 96 96 98 93 83 72
158 167 169 173 174 177 179 173 159 123 100 81 52 80 110 109 115 122 113 107 96 92 84 80 76 77 69 71 79 77 70 63 68 73 81 93 95 96 95 92 87 79 71
166 174 168 167 168 174 175 149 145 125 75 54 55 60 99 126 139 133 90 76 73 74 66 63 60 61 60 57 69 73 72 68 69 72 81 88 91 93 91 86 80 69 65
161 160 160 163 162 157 144 134 119 79 47 44 56 102 106 100 87 78 59 49 53 62 57 49 47 52 59 66 75 77 73 74 70 68 78 81 83 85 85 82 78 69 62
141 145 144 145 138 132 125 119 109 89 55 44 59 93 103 94 75 72 71 63 64 73 68 60 59 58 70 77 79 79 77 82 75 68 73 76 76 80 83 82 77 70 62
129 131 132 132 130 120 108 102 91 81 69 59 59 72 98 102 92 86 81 79 77 83 78 71 70 70 71 70 78 84 85 86 78 71 69 73 72 75 78 77 73 68 65
132 129 129 125 124 115 105 98 90 84 75 61 54 66 86 96 96 89 76 72 74 84 88 86 82 78 71 71 69 77 80 84 79 71 68 69 70 72 72 71 68 66 64
139 133 130 123 114 107 100 96 90 81 77 65 55 63 74 83 87 89 76 71 75 88 90 84 75 73 71 67 60 64 69 73 78 72 69 66 65 66 68 68 65 62 60
135 128 128 122 111 103 101 93 83 77 74 66 62 63 67 75 86 88 81 74 84 88 87 83 74 77 70 66 61 53 55 65 71 72 70 66 63 60 60 62 61 58 57
138 133 124 118 113 105 98 89 81 77 71 66 65 62 60 68 83 88 84 88 90 83 76 90 75 84 85 76 72 58 47 49 56 72 69 66 64 62 59 59 58 55 54
141 137 127 120 118 112 97 84 71 62 55 56 60 60 62 67 77 84 84 84 89 82 75 82 84 73 83 87 83 64 46 43 48 54 63 64 63 61 59 56 52 49 49
137 137 134 131 130 118 105 99 91 77 56 47 53 62 66 69 76 84 85 80 85 88 93 97 95 83 73 87 84 61 39 40 45 41 49 57 55 57 59 57 54 50 45
148 147 144 142 138 132 128 129 129 121 89 62 44 51 58 68 77 92 92 90 92 95 90 93 99 96 81 66 101 94 55 24 21 29 33 51 48 53 57 57 56 53 48
155 160 156 150 140 132 123 107 91 68 52 41 36 31 37 67 76 89 99 99 97 103 110 107 111 114 118 36 81 125 126 149 23 7 22 33 37 42 47 53 53 51 47
167 158 149 149 141 135 129 125 124 121 126 163 150 68 43 62 70 81 96 102 97 97 107 119 118 120 124 114 34 61 124 143 135 80 3 9 29 40 37 48 48 47 46
161 153 152 148 142 139 136 135 129 128 142 136 100 80 52 40 57 74 90 97 97 98 107 97 96 102 117 132 126 100 81 73 92 125 112 349 10 14 24 38 45 45 43
156 151 151 148 146 144 142 139 139 142 140 130 122 110 74 39 33 56 82 89 95 97 106 106 99 99 102 102 102 108 125 130 135 123 132 120 20 347 7 22 36 38 41
Height
1545 1545 1544 1544 1544 1543 1543 1543 1542 1542 1542 1542 1542 1541 1541 1541 1541 1541 1541 1541 1541 1540 1540 1540 1540 1540 1540 1540 1540 1540 1540 1540 1541 1541 1541 1541 1541 1541 1541 1540 1540 1540 1540
1545 1545 1545 1545 1544 1544 1544 1543 1543 1543 1542 1542 1542 1542 1542 1541 1541 1541 1541 1541 1541 1541 1541 1541 1541 1541 1540 1541 1541 1541 1541 1541 1541 1542 1542 1542 1541 1541 1541 1541 1541 1540 1541
1546 1546 1546 1545 1545 1545 1544 1544 1544 1543 1543 1543 1542 1542 1542 1542 1542 1541 1541 1541 1541 1541 1541 1541 1541 1541 1541 1541 1541 1542 1542 1542 1542 1542 1542 1542 1542 1542 1542 1542 1541 1541 1541
1547 1547 1546 1546 1546 1546 1545 1545 1545 1544 1544 1543 1543 1543 1542 1542 1542 1542 1542 1542 1542 1541 1541 1541 1541 1541 1542 1542 1542 1542 1543 1543 1543 1543 1543 1543 1543 1543 1543 1542 1542 1542 1542
1548 1548 1547 1547 1547 1546 1546 1546 1545 1545 1544 1544 1544 1543 1543 1543 1543 1542 1542 1542 1542 1542 1542 1542 1542 1542 1542 1542 1543 1543 1543 1543 1544 1544 1544 1544 1544 1544 1543 1543 1543 1543 1543
1549 1549 1548 1548 1548 1547 1547 1547 1546 1546 1545 1545 1545 1544 1544 1544 1543 1543 1543 1543 1543 1542 1542 1542 1542 1543 1543 1543 1544 1544 1544 1544 1544 1544 1545 1545 1544 1544 1544 1544 1544 1544 1544
1550 1550 1550 1550 1549 1549 1549 1548 1548 1547 1547 1546 1546 1546 1545 1545 1544 1544 1544 1544 1543 1543 1543 1543 1543 1543 1544 1544 1544 1544 1545 1545 1545 1545 1545 1545 1545 1545 1545 1545 1545 1544 1544
1551 1551 1551 1551 1551 1550 1550 1550 1549 1549 1548 1548 1547 1547 1546 1546 1546 1545 1545 1545 1544 1544 1544 1544 1544 1544 1545 1545 1545 1545 1546 1546 1546 1546 1546 1546 1546 1546 1546 1546 1545 1545 1544
1552 1552 1552 1552 1552 1552 1552 1551 1551 1550 1550 1550 1549 1548 1548 1548 1547 1547 1546 1546 1545 1545 1545 1545 1545 1545 1546 1546 1546 1546 1547 1547 1547 1547 1547 1547 1547 1547 1546 1546 1546 1545 1545
1553 1553 1554 1554 1554 1554 1553 1553 1553 1552 1552 1551 1551 1550 1550 1549 1549 1548 1548 1547 1547 1547 1547 1547 1547 1547 1547 1547 1547 1547 1547 1548 1548 1548 1548 1548 1548 1547 1547 1547 1546 1546 1545
1554 1554 1555 1555 1555 1555 1555 1554 1554 1554 1553 1553 1552 1552 1551 1551 1550 1550 1549 1549 1548 1548 1548 1548 1548 1548 1548 1548 1548 1548 1548 1549 1549 1549 1549 1549 1549 1548 1548 1547 1547 1546 1546
1554 1555 1555 1556 1556 1556 1556 1556 1555 1555 1555 1554 1553 1553 1553 1552 1552 1551 1551 1550 1550 1550 1550 1550 1550 1550 1550 1550 1550 1550 1550 1550 1550 1550 1550 1550 1549 1549 1548 1548 1548 1547 1546
1554 1555 1556 1557 1557 1557 1557 1557 1557 1556 1556 1555 1555 1554 1554 1554 1553 1553 1552 1552 1551 1551 1551 1551 1551 1551 1551 1551 1551 1551 1551 1551 1551 1551 1551 1551 1550 1550 1549 1549 1548 1547 1546
1555 1556 1557 1558 1558 1558 1558 1558 1558 1557 1557 1556 1556 1556 1555 1555 1555 1554 1554 1553 1553 1553 1553 1552 1552 1552 1552 1552 1553 1553 1553 1553 1553 1553 1552 1552 1551 1551 1550 1550 1549 1548 1547
1556 1557 1558 1558 1559 1559 1559 1559 1559 1558 1558 1558 1557 1557 1557 1556 1556 1556 1555 1555 1554 1554 1554 1554 1554 1554 1554 1554 1554 1554 1554 1554 1554 1554 1554 1553 1553 1552 1552 1551 1550 1549 1548
1557 1558 1559 1559 1560 1560 1560 1560 1559 1559 1559 1559 1558 1558 1558 1558 1557 1557 1556 1556 1556 1556 1556 1555 1555 1555 1555 1556 1556 1556 1556 1556 1556 1555 1555 1555 1554 1554 1553 1552 1552 1551 1550
1558 1559 1559 1560 1560 1560 1561 1561 1560 1560 1560 1560 1559 1559 1559 1559 1558 1558 1558 1557 1557 1557 1557 1557 1557 1557 1557 1557 1558 1558 1557 1557 1557 1557 1557 1556 1556 1556 1555 1554 1553 1552 1551
1558 1559 1560 1561 1561 1561 1561 1561 1561 1561 1561 1560 1560 1560 1560 1560 1559 1559 1559 1559 1559 1559 1559 1559 1559 1559 1559 1559 1559 1559 1559 1559 1559 1559 1559 1558 1558 1557 1557 1556 1555 1554 1553
1559 1559 1560 1561 1561 1562 1562 1562 1562 1562 1562 1561 1561 1561 1561 1561 1561 1560 1560 1560 1560 1560 1560 1560 1561 1561 1561 1561 1561 1561 1561 1561 1561 1561 1560 1560 1559 1559 1558 1558 1557 1556 1555
1559 1560 1561 1561 1562 1562 1563 1563 1563 1563 1562 1562 1562 1562 1562 1562 1562 1561 1561 1561 1561 1561 1562 1562 1562 1562 1562 1562 1563 1563 1563 1563 1563 1563 1562 1562 1561 1561 1560 1560 1559 1558 1557
1559 1560 1561 1562 1562 1563 1563 1563 1563 1563 1563 1563 1563 1563 1563 1563 1563 1563 1562 1562 1562 1563 1563 1563 1563 1563 1564 1564 1564 1565 1565 1566 1565 1565 1565 1564 1564 1563 1562 1562 1560 1559 1558
1558 1560 1561 1562 1563 1563 1564 1564 1564 1564 1564 1564 1564 1564 1564 1563 1563 1564 1564 1563 1564 1564 1564 1564 1565 1565 1565 1565 1566 1566 1567 1569 1567 1567 1567 1566 1565 1565 1564 1563 1562 1561 1560
1558 1559 1561 1562 1563 1563 1564 1564 1565 1565 1565 1565 1565 1565 1565 1565 1564 1565 1565 1565 1565 1565 1565 1565 1566 1566 1566 1567 1567 1567 1567 1568 1568 1569 1568 1568 1567 1567 1566 1565 1564 1563 1562
1557 1559 1560 1562 1563 1564 1564 1565 1565 1565 1565 1565 1565 1565 1566 1566 1566 1566 1566 1566 1566 1566 1566 1566 1567 1567 1567 1567 1568 1568 1568 1568 1568 1569 1570 1569 1569 1568 1567 1567 1565 1564 1563
1556 1558 1560 1561 1562 1563 1564 1565 1565 1565 1566 1566 1566 1566 1566 1567 1567 1567 1567 1567 1567 1567 1568 1568 1568 1568 1568 1568 1568 1568 1568 1568 1569 1569 1569 1570 1570 1569 1569 1568 1567 1566 1564
1555 1557 1559 1561 1562 1563 1564 1565 1565 1566 1566 1566 1567 1567 1567 1567 1568 1568 1568 1568 1568 1568 1569 1569 1569 1568 1569 1569 1569 1569 1569 1569 1569 1569 1569 1570 1570 1570 1569 1569 1568 1567 1566